星链-1701 (STARLINK-1701 )

导读 | 豆包AI

STARLINK-1701是美国SpaceX公司星链星座的一员,于2020年10月6日发射入轨,属于星链第一代互联网通信卫星。星链项目旨在构建全球卫星互联网,为全球偏远地区及地面网络覆盖不足区域提供高速低延迟宽带服务。该卫星运行于近地轨道,配备相控阵天线与氪离子推进系统,可完成轨道维持和自主避碰,设计寿命约5年,目前已超期服役。作为Starlink大规模组网的组成部分,它支撑了星座初期全球覆盖能力的搭建。

基本信息
目录编号:
46550
目录名称:
STARLINK-1701
国际标识:
2020-070U
轨道中心:
EARTH
卫星名称:
星链-1701
卫星全名:
星链-1701 (STARLINK-1701 )
卫星状态:
已陨落 最后检测时间 2025-03-01
发射日期:
2020-10-06 UTC
国别 :
美国 (US)
星等 :
--
轨道信息
数据来源 国际轨道数据
星历时间: 2025-02-28T22:36:56+0800
轨道信息已过期378天
半长轴: 6543.461km
偏心率: 0.0003094
轨道倾角: 53.040°
近地点辐角 177.044°
升交点赤经 12.936°
平近点角 1.389°
近地点: 163.301km
远地点: 167.351km
周期: 87.795分钟
每日圈数: 16.401802
详细信息
固有亮度:
5
最大亮度:
2.5
卫星平台:
Starlink V1.0
覆盖范围:
全球
运营商:
太空探索技术公司
运营商所在国:
美国
制造商(研发单位):
太空探索技术公司
制造商所在国:
美国
使用方式:
暂无
卫星简介
星链(Starlink)计划是由太空探索技术公司(SpaceX)提出的一个巨型低轨卫星互联网星座项目,计划在2019年至2024年间在太空搭建由约1.2万颗卫星组成的“星链”网络,其中1584颗将部署在地球上空550千米处的近地轨道,并从2020年开始工作。该卫星仍在工作。